,,Stat5,,Stat1,,Stat2,,Stat3,,Stat4,,Wind1,,Wind1,
time,status,PA1M_AVG,status,PR1M_SUM,status,RH1M_AVG,status,SR1M_AVG,status,TA1M_AVG,status,W1dAve1m,status,W1sAve1m,
2001-07-19, 00:00:00,VALID,917.941,VALID,0,VALID,98.0242,VALID,0,VALID,18.7201,VALID,174,VALID,0.478463,
2001-07-19, 00:01:00,VALID,917.933,VALID,0,VALID,98.0051,VALID,0.0509425,VALID,18.7294,VALID,173,VALID,0.29308,
2001-07-19, 00:02:00,VALID,917.927,VALID,0,VALID,98.0331,VALID,0.0339617,VALID,18.7194,VALID,41,VALID,0.359586,
2001-07-19, 00:03:00,VALID,917.919,VALID,0,VALID,98.0636,VALID,0.0339617,VALID,18.7289,VALID,84,VALID,0.381373,
2001-07-19, 00:04:00,VALID,917.926,VALID,0,VALID,98.0331,VALID,0,VALID,18.7326,VALID,99,VALID,0.0663007,
2001-07-19, 00:05:00,VALID,917.921,VALID,0,VALID,97.7355,VALID,0.0339617,VALID,18.6871,VALID,56,VALID,0.570524,
2001-07-19, 00:06:00,VALID,917.918,VALID,0,VALID,97.3134,VALID,0.0509425,VALID,18.5478,VALID,34,VALID,1.00528,
2001-07-19, 00:07:00,VALID,917.911,VALID,0,VALID,97.5333,VALID,0.0169808,VALID,18.5262,VALID,37,VALID,0.703547,
2001-07-19, 00:08:00,VALID,917.909,VALID,0,VALID,97.8017,VALID,0.0169808,VALID,18.5102,VALID,42,VALID,0.50217,
2001-07-19, 00:09:00,VALID,917.897,VALID,0,VALID,98.0979,VALID,0,VALID,18.5455,VALID,63,VALID,0.429054,
2001-07-19, 00:10:00,VALID,917.892,VALID,0,VALID,98.1196,VALID,0.0339617,VALID,18.5681,VALID,93,VALID,0.560811,
2001-07-19, 00:11:00,VALID,917.886,VALID,0,VALID,98.2137,VALID,0.0509425,VALID,18.5515,VALID,101,VALID,0.748828,
2001-07-19, 00:12:00,VALID,917.883,VALID,0,VALID,98.3281,VALID,0.0339617,VALID,18.5739,VALID,113,VALID,0.961538,
2001-07-19, 00:13:00,VALID,917.891,VALID,0,VALID,98.3294,VALID,-0.101885,VALID,18.5944,VALID,133,VALID,0.716797,
2001-07-19, 00:14:00,VALID,917.893,VALID,0,VALID,98.2696,VALID,-0.0339617,VALID,18.6244,VALID,139,VALID,0.991571,
2001-07-19, 00:15:00,VALID,917.885,VALID,0,VALID,98.1081,VALID,-0.0509425,VALID,18.6113,VALID,134,VALID,0.609766,
2001-07-19, 00:16:00,VALID,917.892,VALID,0,VALID,98.0738,VALID,-0.101885,VALID,18.5986,VALID,146,VALID,0.701322,
2001-07-19, 00:17:00,VALID,917.884,VALID,0,VALID,98.2187,VALID,-0.0509425,VALID,18.6143,VALID,146,VALID,0.840039,
2001-07-19, 00:18:00,VALID,917.892,VALID,0,VALID,98.1997,VALID,-0.0679233,VALID,18.6207,VALID,152,VALID,0.564762,
2001-07-19, 00:19:00,VALID,917.883,VALID,0,VALID,98.1539,VALID,-0.0679233,VALID,18.6311,VALID,116,VALID,0.302148,
2001-07-19, 00:20:00,VALID,917.901,VALID,0,VALID,98.042,VALID,-0.0679233,VALID,18.5979,VALID,132,VALID,0.552083,
2001-07-19, 00:21:00,VALID,917.901,VALID,0,VALID,98.0916,VALID,-0.0849042,VALID,18.5854,VALID,147,VALID,0.697461,
2001-07-19, 00:22:00,VALID,917.902,VALID,0,VALID,98.0534,VALID,-0.0849042,VALID,18.5695,VALID,101,VALID,0.530428,
2001-07-19, 00:23:00,VALID,917.896,VALID,0,VALID,98.1005,VALID,-0.0849042,VALID,18.534,VALID,92,VALID,0.773828,
2001-07-19, 00:24:00,VALID,917.889,VALID,0,VALID,98.1488,VALID,-0.101885,VALID,18.5144,VALID,80,VALID,0.66887,
2001-07-19, 00:25:00,VALID,917.864,VALID,0,VALID,98.2137,VALID,-0.0849042,VALID,18.4856,VALID,87,VALID,0.811719,
2001-07-19, 00:26:00,VALID,917.837,VALID,0,VALID,98.2798,VALID,-0.0849042,VALID,18.4819,VALID,100,VALID,0.887336,
2001-07-19, 00:27:00,VALID,917.816,VALID,0,VALID,98.2887,VALID,-0.0849042,VALID,18.486,VALID,94,VALID,1.05703,
2001-07-19, 00:28:00,VALID,917.805,VALID,0,VALID,98.379,VALID,0.0169808,VALID,18.4909,VALID,105,VALID,1.23698,
2001-07-19, 00:29:00,VALID,917.786,VALID,0,VALID,98.3637,VALID,0.0169808,VALID,18.5006,VALID,110,VALID,0.995313,
2001-07-19, 00:30:00,VALID,917.782,VALID,0,VALID,98.4909,VALID,0.0169808,VALID,18.5197,VALID,87,VALID,0.983964,
2001-07-19, 00:31:00,VALID,917.768,VALID,0,VALID,98.4209,VALID,0.0339617,VALID,18.5222,VALID,59,VALID,0.919531,
2001-07-19, 00:32:00,VALID,917.771,VALID,0,VALID,98.281,VALID,0.0509425,VALID,18.51,VALID,65,VALID,0.963742,
2001-07-19, 00:33:00,VALID,917.767,VALID,0,VALID,98.1501,VALID,0.0679233,VALID,18.4743,VALID,65,VALID,0.76582,
2001-07-19, 00:34:00,VALID,917.766,VALID,0,VALID,98.0242,VALID,0.0169808,VALID,18.4228,VALID,58,VALID,1.0734,
2001-07-19, 00:35:00,VALID,917.747,VALID,0,VALID,98.0903,VALID,0.0679233,VALID,18.3968,VALID,53,VALID,1.19609,
2001-07-19, 00:36:00,VALID,917.727,VALID,0,VALID,98.2187,VALID,0,VALID,18.4072,VALID,54,VALID,1.43409,
2001-07-19, 00:37:00,VALID,917.7,VALID,0,VALID,98.3179,VALID,0.0169808,VALID,18.4037,VALID,57,VALID,1.46172,
2001-07-19, 00:38:00,VALID,917.685,VALID,0,VALID,98.3459,VALID,0,VALID,18.3968,VALID,61,VALID,1.23088,
2001-07-19, 00:39:00,VALID,917.652,VALID,0,VALID,98.4311,VALID,0.0169808,VALID,18.3839,VALID,82,VALID,1.21582,
2001-07-19, 00:40:00,VALID,917.627,VALID,0,VALID,98.4921,VALID,0,VALID,18.3873,VALID,93,VALID,1.04167,
2001-07-19, 00:41:00,VALID,917.601,VALID,0,VALID,98.5544,VALID,0,VALID,18.3873,VALID,95,VALID,1.05742,
2001-07-19, 00:42:00,VALID,917.565,VALID,0,VALID,98.5875,VALID,0,VALID,18.3979,VALID,82,VALID,0.94449,
2001-07-19, 00:43:00,VALID,917.527,VALID,0,VALID,98.5557,VALID,0,VALID,18.3816,VALID,102,VALID,1.18594,
2001-07-19, 00:44:00,VALID,917.497,VALID,0,VALID,98.6384,VALID,0.0169808,VALID,18.3878,VALID,99,VALID,1.20313,
2001-07-19, 00:45:00,VALID,917.461,VALID,0,VALID,98.6104,VALID,0.0169808,VALID,18.3776,VALID,100,VALID,1.1625,
2001-07-19, 00:46:00,VALID,917.414,VALID,0,VALID,98.6256,VALID,0.0509425,VALID,18.3679,VALID,111,VALID,1.03762,
2001-07-19, 00:47:00,VALID,917.404,VALID,0,VALID,98.6358,VALID,0,VALID,18.3811,VALID,133,VALID,0.977734,
2001-07-19, 00:48:00,VALID,917.368,VALID,0,VALID,98.6078,VALID,0.0169808,VALID,18.3585,VALID,124,VALID,0.805889,
2001-07-19, 00:49:00,VALID,917.338,VALID,0,VALID,98.5799,VALID,0.0169808,VALID,18.3359,VALID,147,VALID,0.626953,
2001-07-19, 00:50:00,VALID,917.309,VALID,0,VALID,98.6295,VALID,0.0509425,VALID,18.3098,VALID,124,VALID,1.07381,
2001-07-19, 00:51:00,VALID,917.261,VALID,0,VALID,98.6841,VALID,0.0169808,VALID,18.3098,VALID,108,VALID,0.858594,
2001-07-19, 00:52:00,VALID,917.246,VALID,0,VALID,98.6905,VALID,0.0509425,VALID,18.3163,VALID,111,VALID,0.774439,
2001-07-19, 00:53:00,VALID,917.232,VALID,0,VALID,98.6015,VALID,0.0339617,VALID,18.2711,VALID,117,VALID,0.546484,
2001-07-19, 00:54:00,VALID,917.214,VALID,0,VALID,98.6587,VALID,0.0679233,VALID,18.242,VALID,115,VALID,0.738898,
2001-07-19, 00:55:00,VALID,917.203,VALID,0,VALID,98.7236,VALID,0,VALID,18.2358,VALID,105,VALID,0.980664,
2001-07-19, 00:56:00,VALID,917.161,VALID,0,VALID,98.7388,VALID,0.0339617,VALID,18.2224,VALID,106,VALID,1.07171,
2001-07-19, 00:57:00,VALID,917.152,VALID,0,VALID,98.7554,VALID,0.0509425,VALID,18.2065,VALID,98,VALID,1.12617,
2001-07-19, 00:58:00,VALID,917.126,VALID,0,VALID,98.791,VALID,-0.101885,VALID,18.1922,VALID,98,VALID,0.905222,
2001-07-19, 00:59:00,VALID,917.072,VALID,0,VALID,98.9054,VALID,-0.0849042,VALID,18.2081,VALID,109,VALID,1.18652,
2001-07-19, 01:00:00,VALID,917.043,VALID,0,VALID,98.8965,VALID,-0.0509425,VALID,18.2053,VALID,125,VALID,0.966146,
2001-07-19, 01:01:00,VALID,917.016,VALID,0,VALID,98.9715,VALID,-0.0849042,VALID,18.2148,VALID,132,VALID,1.26367,
2001-07-19, 01:02:00,VALID,916.992,VALID,0,VALID,98.9931,VALID,-0.118866,VALID,18.2243,VALID,124,VALID,0.876439,
2001-07-19, 01:03:00,VALID,916.974,VALID,0,VALID,99.0287,VALID,-0.101885,VALID,18.2372,VALID,124,VALID,0.928906,
2001-07-19, 01:04:00,VALID,916.959,VALID,0,VALID,99.0834,VALID,-0.0849042,VALID,18.2662,VALID,116,VALID,1.21114,
2001-07-19, 01:05:00,VALID,916.943,VALID,0,VALID,99.0593,VALID,-0.101885,VALID,18.2891,VALID,109,VALID,0.975586,
2001-07-19, 01:06:00,VALID,916.937,VALID,0,VALID,99.0478,VALID,-0.0849042,VALID,18.2858,VALID,119,VALID,0.972245,
2001-07-19, 01:07:00,VALID,916.941,VALID,0,VALID,99.0453,VALID,-0.101885,VALID,18.2858,VALID,124,VALID,1.03711,
2001-07-19, 01:08:00,VALID,916.948,VALID,0,VALID,99.0262,VALID,-0.101885,VALID,18.2791,VALID,121,VALID,0.948718,
2001-07-19, 01:09:00,VALID,916.949,VALID,0,VALID,98.997,VALID,-0.101885,VALID,18.2796,VALID,120,VALID,0.64082,
2001-07-19, 01:10:00,VALID,916.965,VALID,0,VALID,99.0084,VALID,-0.101885,VALID,18.2729,VALID,124,VALID,0.654811,
2001-07-19, 01:11:00,VALID,916.955,VALID,0,VALID,99.0008,VALID,-0.0679233,VALID,18.2692,VALID,105,VALID,0.216992,
2001-07-19, 01:12:00,VALID,916.952,VALID,0,VALID,99.0059,VALID,-0.0849042,VALID,18.2791,VALID,91,VALID,0.224359,
2001-07-19, 01:13:00,VALID,916.956,VALID,0,VALID,98.9868,VALID,-0.0509425,VALID,18.2787,VALID,6,VALID,0.247852,
2001-07-19, 01:14:00,VALID,916.963,VALID,0,VALID,98.9601,VALID,-0.0339617,VALID,18.2593,VALID,360,VALID,0.828125,
2001-07-19, 01:15:00,VALID,916.976,VALID,0,VALID,98.8901,VALID,-0.0169808,VALID,18.2176,VALID,1,VALID,1.07988,
2001-07-19, 01:16:00,VALID,916.978,VALID,0,VALID,98.8533,VALID,-0.0169808,VALID,18.1721,VALID,8,VALID,0.771434,
2001-07-19, 01:17:00,VALID,916.992,VALID,0,VALID,98.8444,VALID,-0.0339617,VALID,18.1528,VALID,7,VALID,0.757227,
2001-07-19, 01:18:00,VALID,917.012,VALID,0,VALID,98.9041,VALID,-0.0339617,VALID,18.1592,VALID,1,VALID,0.887336,
2001-07-19, 01:19:00,VALID,917.005,VALID,0,VALID,98.9283,VALID,-0.0339617,VALID,18.1823,VALID,7,VALID,1.00234,
2001-07-19, 01:20:00,VALID,916.982,VALID,0,VALID,98.9575,VALID,-0.0339617,VALID,18.1887,VALID,5,VALID,0.76222,
2001-07-19, 01:21:00,VALID,916.977,VALID,0,VALID,98.9855,VALID,-0.0169808,VALID,18.2012,VALID,19,VALID,0.815625,
2001-07-19, 01:22:00,VALID,916.953,VALID,0,VALID,98.9766,VALID,-0.0169808,VALID,18.2017,VALID,16,VALID,0.610403,
2001-07-19, 01:23:00,VALID,916.928,VALID,0,VALID,98.9359,VALID,-0.0339617,VALID,18.156,VALID,13,VALID,0.516406,
2001-07-19, 01:24:00,VALID,916.915,VALID,0,VALID,98.8812,VALID,-0.0169808,VALID,18.1076,VALID,13,VALID,0.365785,
2001-07-19, 01:25:00,VALID,916.908,VALID,0,VALID,98.8673,VALID,-0.0509425,VALID,18.0589,VALID,13,VALID,0.219141,
2001-07-19, 01:26:00,VALID,916.896,VALID,0,VALID,98.894,VALID,-0.0339617,VALID,18.043,VALID,10,VALID,0.527344,
2001-07-19, 01:27:00,VALID,916.901,VALID,0,VALID,98.8329,VALID,-0.0509425,VALID,17.9851,VALID,348,VALID,0.675391,
2001-07-19, 01:28:00,VALID,916.895,VALID,0,VALID,98.8545,VALID,0.0509425,VALID,17.9678,VALID,348,VALID,0.591747,
2001-07-19, 01:29:00,VALID,916.896,VALID,0,VALID,98.9486,VALID,0.0849042,VALID,17.9934,VALID,341,VALID,0.802148,
2001-07-19, 01:30:00,VALID,916.872,VALID,0,VALID,98.9995,VALID,0.0509425,VALID,18.0156,VALID,360,VALID,0.640831,
2001-07-19, 01:31:00,VALID,916.855,VALID,0,VALID,99.0135,VALID,0.0509425,VALID,18.0096,VALID,7,VALID,0.426953,
2001-07-19, 01:32:00,VALID,916.835,VALID,0,VALID,99.0135,VALID,0.0509425,VALID,18.0063,VALID,8,VALID,0.0104167,
2001-07-19, 01:33:00,VALID,916.812,VALID,0,VALID,99.0224,VALID,0.0679233,VALID,18.0031,VALID,33,VALID,0.084375,
2001-07-19, 01:34:00,VALID,916.787,VALID,0,VALID,99.0198,VALID,0.0509425,VALID,18.0036,VALID,49,VALID,0.547286,
2001-07-19, 01:35:00,VALID,916.77,VALID,0,VALID,99.0148,VALID,0.0339617,VALID,17.9773,VALID,49,VALID,0.690039,
2001-07-19, 01:36:00,VALID,916.764,VALID,0,VALID,99.0198,VALID,0.0679233,VALID,17.9676,VALID,47,VALID,0.760016,
2001-07-19, 01:37:00,VALID,916.756,VALID,0,VALID,99.0224,VALID,0.0509425,VALID,17.9549,VALID,43,VALID,0.736328,
2001-07-19, 01:38:00,VALID,916.754,VALID,0,VALID,99.0186,VALID,0.0509425,VALID,17.9157,VALID,42,VALID,0.546053,
2001-07-19, 01:39:00,VALID,916.752,VALID,0,VALID,99.044,VALID,0.0339617,VALID,17.9162,VALID,42,VALID,0.401758,
2001-07-19, 01:40:00,VALID,916.738,VALID,0,VALID,99.0682,VALID,0.0679233,VALID,17.9159,VALID,42,VALID,0.21895,
2001-07-19, 01:41:00,VALID,916.716,VALID,0,VALID,99.0796,VALID,0.0509425,VALID,17.9228,VALID,43,VALID,0.0314453,
2001-07-19, 01:42:00,VALID,916.709,VALID,0,VALID,99.002,VALID,0.0679233,VALID,17.8839,VALID,132,VALID,0.603207,
2001-07-19, 01:43:00,VALID,916.701,VALID,0,VALID,98.9842,VALID,-0.0169808,VALID,17.8237,VALID,144,VALID,0.722656,
2001-07-19, 01:44:00,VALID,916.693,VALID,0,VALID,98.9881,VALID,-0.0339617,VALID,17.7817,VALID,148,VALID,0.898237,
2001-07-19, 01:45:00,VALID,916.689,VALID,0,VALID,99.0046,VALID,-0.0339617,VALID,17.7529,VALID,144,VALID,0.879687,
2001-07-19, 01:46:00,VALID,916.691,VALID,0,VALID,99.0173,VALID,-0.0679233,VALID,17.7139,VALID,136,VALID,0.655839,
2001-07-19, 01:47:00,VALID,916.695,VALID,0,VALID,99.0122,VALID,-0.0339617,VALID,17.6851,VALID,107,VALID,0.345117,
2001-07-19, 01:48:00,VALID,916.685,VALID,0,VALID,98.983,VALID,-0.0509425,VALID,17.6274,VALID,88,VALID,0.352965,
2001-07-19, 01:49:00,VALID,916.699,VALID,0,VALID,99.0008,VALID,-0.0679233,VALID,17.582,VALID,88,VALID,0.305273,
2001-07-19, 01:50:00,VALID,916.698,VALID,0,VALID,99.0173,VALID,-0.0509425,VALID,17.5396,VALID,88,VALID,0.318668,
2001-07-19, 01:51:00,VALID,916.684,VALID,0,VALID,99.0605,VALID,-0.0849042,VALID,17.5236,VALID,109,VALID,0.402344,
2001-07-19, 01:52:00,VALID,916.677,VALID,0,VALID,99.1724,VALID,-0.0509425,VALID,17.5301,VALID,131,VALID,0.319511,
2001-07-19, 01:53:00,VALID,916.672,VALID,0,VALID,99.2055,VALID,-0.0509425,VALID,17.5755,VALID,128,VALID,0.162305,
2001-07-19, 01:54:00,VALID,916.684,VALID,0,VALID,99.1178,VALID,-0.0339617,VALID,17.54,VALID,124,VALID,0.0966283,
2001-07-19, 01:55:00,VALID,916.693,VALID,0,VALID,99.161,VALID,-0.0169808,VALID,17.5077,VALID,124,VALID,0.295117,
2001-07-19, 01:56:00,VALID,916.687,VALID,0,VALID,99.2411,VALID,-0.0509425,VALID,17.5398,VALID,111,VALID,0.361178,
2001-07-19, 01:57:00,VALID,916.684,VALID,0,VALID,99.2119,VALID,-0.0509425,VALID,17.5335,VALID,80,VALID,0.492969,
2001-07-19, 01:58:00,VALID,916.681,VALID,0,VALID,99.3301,VALID,-0.0509425,VALID,17.576,VALID,86,VALID,0.728618,
2001-07-19, 01:59:00,VALID,916.658,VALID,0,VALID,99.4166,VALID,-0.0509425,VALID,17.724,VALID,91,VALID,0.874414,
2001-07-19, 02:00:00,VALID,916.664,VALID,0,VALID,99.381,VALID,0,VALID,17.7824,VALID,92,VALID,0.77484,
2001-07-19, 02:01:00,VALID,916.643,VALID,0,VALID,99.3683,VALID,-0.0169808,VALID,17.8144,VALID,93,VALID,0.675391,
2001-07-19, 02:02:00,VALID,916.63,VALID,0,VALID,99.306,VALID,-0.0339617,VALID,17.7981,VALID,99,VALID,0.589227,
2001-07-19, 02:03:00,VALID,916.628,VALID,0,VALID,99.2945,VALID,-0.0679233,VALID,17.7632,VALID,99,VALID,0.697461,
2001-07-19, 02:04:00,VALID,916.619,VALID,0,VALID,99.2602,VALID,-0.0679233,VALID,17.7367,VALID,101,VALID,0.613782,
2001-07-19, 02:05:00,VALID,916.621,VALID,0,VALID,99.1788,VALID,-0.0169808,VALID,17.6627,VALID,85,VALID,0.566211,
2001-07-19, 02:06:00,VALID,916.628,VALID,0,VALID,99.086,VALID,-0.0679233,VALID,17.5658,VALID,79,VALID,0.702303,
2001-07-19, 02:07:00,VALID,916.63,VALID,0,VALID,99.1343,VALID,-0.0509425,VALID,17.4881,VALID,69,VALID,0.871484,
2001-07-19, 02:08:00,VALID,916.642,VALID,0,VALID,99.0847,VALID,-0.0169808,VALID,17.4042,VALID,56,VALID,1.0002,
2001-07-19, 02:09:00,VALID,916.644,VALID,0,VALID,99.2805,VALID,-0.0169808,VALID,17.4367,VALID,87,VALID,0.883008,
2001-07-19, 02:10:00,VALID,916.649,VALID,0,VALID,99.3009,VALID,-0.0169808,VALID,17.4946,VALID,62,VALID,0.466077,
2001-07-19, 02:11:00,VALID,916.657,VALID,0,VALID,99.278,VALID,-0.0339617,VALID,17.466,VALID,68,VALID,0.548437,
2001-07-19, 02:12:00,VALID,916.656,VALID,0,VALID,99.3072,VALID,-0.0339617,VALID,17.4655,VALID,80,VALID,0.489784,
2001-07-19, 02:13:00,VALID,916.633,VALID,0,VALID,99.2691,VALID,-0.0339617,VALID,17.469,VALID,81,VALID,0.491016,
2001-07-19, 02:14:00,VALID,916.631,VALID,0,VALID,99.2093,VALID,-0.0339617,VALID,17.4076,VALID,81,VALID,0.473273,
2001-07-19, 02:15:00,VALID,916.623,VALID,0,VALID,99.2335,VALID,-0.0339617,VALID,17.3792,VALID,91,VALID,0.605469,
2001-07-19, 02:16:00,VALID,916.616,VALID,0,VALID,99.2971,VALID,0,VALID,17.385,VALID,109,VALID,0.832332,
2001-07-19, 02:17:00,VALID,916.593,VALID,0,VALID,99.3466,VALID,-0.0509425,VALID,17.4208,VALID,134,VALID,0.840039,
2001-07-19, 02:18:00,VALID,916.602,VALID,0,VALID,99.3708,VALID,-0.0339617,VALID,17.4565,VALID,136,VALID,0.518709,
2001-07-19, 02:19:00,VALID,916.608,VALID,0,VALID,99.3403,VALID,-0.0339617,VALID,17.4365,VALID,135,VALID,0.541992,
2001-07-19, 02:20:00,VALID,916.636,VALID,0,VALID,99.2615,VALID,-0.0169808,VALID,17.3915,VALID,92,VALID,0.294071,
2001-07-19, 02:21:00,VALID,916.658,VALID,0,VALID,99.2742,VALID,-0.0339617,VALID,17.3078,VALID,99,VALID,0.833133,
2001-07-19, 02:22:00,VALID,916.653,VALID,0,VALID,99.2894,VALID,-0.0169808,VALID,17.3209,VALID,99,VALID,0.829359,
2001-07-19, 02:23:00,VALID,916.671,VALID,0,VALID,99.2958,VALID,-0.0339617,VALID,17.2787,VALID,114,VALID,0.856055,
2001-07-19, 02:24:00,VALID,916.676,VALID,0,VALID,99.3606,VALID,-0.0339617,VALID,17.314,VALID,126,VALID,0.819111,
2001-07-19, 02:25:00,VALID,916.673,VALID,0,VALID,99.3543,VALID,-0.0339617,VALID,17.3009,VALID,119,VALID,0.887695,
2001-07-19, 02:26:00,VALID,916.68,VALID,0,VALID,99.3644,VALID,-0.0169808,VALID,17.3177,VALID,118,VALID,0.770559,
2001-07-19, 02:27:00,VALID,916.657,VALID,0,VALID,99.3988,VALID,-0.0169808,VALID,17.3205,VALID,130,VALID,1.0416,
2001-07-19, 02:28:00,VALID,916.676,VALID,0,VALID,99.4293,VALID,0,VALID,17.3594,VALID,105,VALID,0.626202,
2001-07-19, 02:29:00,VALID,916.672,VALID,0,VALID,99.395,VALID,-0.0509425,VALID,17.3498,VALID,78,VALID,0.321875,
2001-07-19, 02:30:00,VALID,916.662,VALID,0,VALID,99.3721,VALID,0,VALID,17.3015,VALID,91,VALID,0.42352,
2001-07-19, 02:31:00,VALID,916.667,VALID,0,VALID,99.4077,VALID,-0.0169808,VALID,17.2916,VALID,135,VALID,0.672266,
2001-07-19, 02:32:00,VALID,916.664,VALID,0,VALID,99.4395,VALID,-0.0339617,VALID,17.3407,VALID,144,VALID,0.813301,
2001-07-19, 02:33:00,VALID,916.667,VALID,0,VALID,99.4522,VALID,-0.0339617,VALID,17.3599,VALID,141,VALID,0.659961,
2001-07-19, 02:34:00,VALID,916.656,VALID,0,VALID,99.4522,VALID,-0.0509425,VALID,17.3795,VALID,108,VALID,0.362048,
2001-07-19, 02:35:00,VALID,916.643,VALID,0,VALID,99.4344,VALID,-0.0169808,VALID,17.3795,VALID,163,VALID,0.303516,
2001-07-19, 02:36:00,VALID,916.63,VALID,0,VALID,99.4255,VALID,-0.0169808,VALID,17.3629,VALID,131,VALID,0.106571,
2001-07-19, 02:37:00,VALID,916.619,VALID,0,VALID,99.414,VALID,-0.0169808,VALID,17.3272,VALID,133,VALID,0.453516,
2001-07-19, 02:38:00,VALID,916.63,VALID,0,VALID,99.4115,VALID,-0.0509425,VALID,17.3241,VALID,137,VALID,0.125,
2001-07-19, 02:39:00,VALID,916.62,VALID,0,VALID,99.4217,VALID,0,VALID,17.3209,VALID,147,VALID,0.763867,
2001-07-19, 02:40:00,VALID,916.614,VALID,0,VALID,99.4357,VALID,-0.0169808,VALID,17.3274,VALID,144,VALID,0.596354,
2001-07-19, 02:41:00,VALID,916.607,VALID,0,VALID,99.4344,VALID,-0.0169808,VALID,17.3302,VALID,119,VALID,0.651367,
2001-07-19, 02:42:00,VALID,916.603,VALID,0,VALID,99.4662,VALID,-0.0169808,VALID,17.3594,VALID,106,VALID,1.00946,
2001-07-19, 02:43:00,VALID,916.59,VALID,0,VALID,99.4598,VALID,0,VALID,17.3629,VALID,84,VALID,0.766797,
2001-07-19, 02:44:00,VALID,916.584,VALID,0,VALID,99.4916,VALID,-0.0339617,VALID,17.3756,VALID,102,VALID,0.857372,
2001-07-19, 02:45:00,VALID,916.571,VALID,0,VALID,99.4903,VALID,-0.0339617,VALID,17.4115,VALID,102,VALID,0.906445,
2001-07-19, 02:46:00,VALID,916.551,VALID,0,VALID,99.47,VALID,0,VALID,17.4143,VALID,109,VALID,0.830592,
2001-07-19, 02:47:00,VALID,916.536,VALID,0,VALID,99.4585,VALID,-0.0339617,VALID,17.398,VALID,101,VALID,0.686523,
2001-07-19, 02:48:00,VALID,916.52,VALID,0,VALID,99.4496,VALID,0,VALID,17.3721,VALID,106,VALID,0.702724,
2001-07-19, 02:49:00,VALID,916.508,VALID,0,VALID,99.4433,VALID,0,VALID,17.3364,VALID,109,VALID,0.74668,
2001-07-19, 02:50:00,VALID,916.501,VALID,0,VALID,99.4509,VALID,0,VALID,17.3306,VALID,99,VALID,0.575452,
2001-07-19, 02:51:00,VALID,916.497,VALID,0,VALID,99.4318,VALID,-0.0339617,VALID,17.3115,VALID,101,VALID,0.789063,
2001-07-19, 02:52:00,VALID,916.5,VALID,0,VALID,99.4446,VALID,-0.0339617,VALID,17.2985,VALID,99,VALID,0.798878,
2001-07-19, 02:53:00,VALID,916.508,VALID,0,VALID,99.4318,VALID,-0.0509425,VALID,17.2693,VALID,100,VALID,0.629687,
2001-07-19, 02:54:00,VALID,916.498,VALID,0,VALID,99.4509,VALID,-0.0339617,VALID,17.26,VALID,102,VALID,0.7169,
2001-07-19, 02:55:00,VALID,916.492,VALID,0,VALID,99.47,VALID,-0.0509425,VALID,17.2596,VALID,119,VALID,0.655664,
2001-07-19, 02:56:00,VALID,916.483,VALID,0,VALID,99.4802,VALID,-0.0509425,VALID,17.266,VALID,128,VALID,0.597155,
2001-07-19, 02:57:00,VALID,916.463,VALID,0,VALID,99.4814,VALID,-0.0339617,VALID,17.2598,VALID,152,VALID,0.460156,
2001-07-19, 02:58:00,VALID,916.448,VALID,0,VALID,99.5056,VALID,-0.0339617,VALID,17.2891,VALID,152,VALID,0.790913,
2001-07-19, 02:59:00,VALID,916.435,VALID,0.2,VALID,99.5259,VALID,-0.0849042,VALID,17.3246,VALID,158,VALID,0.62168,
2001-07-19, 03:00:00,VALID,916.435,VALID,0,VALID,99.5183,VALID,-0.0339617,VALID,17.3564,VALID,149,VALID,0.38121,
2001-07-19, 03:01:00,VALID,916.401,VALID,0,VALID,99.5234,VALID,-0.0509425,VALID,17.3762,VALID,127,VALID,0.0476562,
2001-07-19, 03:02:00,VALID,916.399,VALID,0,VALID,99.5259,VALID,-0.0509425,VALID,17.3954,VALID,127,VALID,0.188322,
2001-07-19, 03:03:00,VALID,916.387,VALID,0,VALID,99.5081,VALID,-0.0169808,VALID,17.4016,VALID,107,VALID,0.377539,
2001-07-19, 03:04:00,VALID,916.379,VALID,0,VALID,99.4814,VALID,-0.0509425,VALID,17.3629,VALID,93,VALID,0.351763,
2001-07-19, 03:05:00,VALID,916.381,VALID,0,VALID,99.4764,VALID,-0.0339617,VALID,17.3504,VALID,93,VALID,0.0556641,
2001-07-19, 03:06:00,VALID,916.385,VALID,0,VALID,99.4725,VALID,-0.0339617,VALID,17.3214,VALID,93,VALID,0,
2001-07-19, 03:07:00,VALID,916.38,VALID,0,VALID,99.4802,VALID,-0.0849042,VALID,17.3149,VALID,93,VALID,0,
2001-07-19, 03:08:00,VALID,916.401,VALID,0,VALID,99.4865,VALID,-0.0679233,VALID,17.3147,VALID,93,VALID,0,
2001-07-19, 03:09:00,VALID,916.4,VALID,0,VALID,99.4827,VALID,-0.0679233,VALID,17.2914,VALID,105,VALID,0,
2001-07-19, 03:10:00,VALID,916.404,VALID,0,VALID,99.4992,VALID,-0.0509425,VALID,17.2985,VALID,121,VALID,0,
2001-07-19, 03:11:00,VALID,916.435,VALID,0,VALID,99.498,VALID,-0.0679233,VALID,17.3151,VALID,126,VALID,0.25625,
2001-07-19, 03:12:00,VALID,916.438,VALID,0,VALID,99.5031,VALID,-0.0849042,VALID,17.308,VALID,140,VALID,0.680288,
2001-07-19, 03:13:00,VALID,916.453,VALID,0,VALID,99.5043,VALID,0.0169808,VALID,17.294,VALID,144,VALID,0.473242,
2001-07-19, 03:14:00,VALID,916.451,VALID,0,VALID,99.4891,VALID,0.0339617,VALID,17.2746,VALID,153,VALID,0.647204,
2001-07-19, 03:15:00,VALID,916.447,VALID,0,VALID,99.5018,VALID,0.0509425,VALID,17.2583,VALID,161,VALID,0.558398,
2001-07-19, 03:16:00,VALID,916.432,VALID,0,VALID,99.5043,VALID,0.0849042,VALID,17.2617,VALID,158,VALID,0.606571,
2001-07-19, 03:17:00,VALID,916.431,VALID,0,VALID,99.4827,VALID,0.0169808,VALID,17.2391,VALID,134,VALID,0.576953,
2001-07-19, 03:18:00,VALID,916.417,VALID,0,VALID,99.4776,VALID,0.0339617,VALID,17.2002,VALID,136,VALID,0.520765,
2001-07-19, 03:19:00,VALID,916.39,VALID,0,VALID,99.5018,VALID,0.0849042,VALID,17.1933,VALID,140,VALID,0.378516,
2001-07-19, 03:20:00,VALID,916.406,VALID,0,VALID,99.4751,VALID,0.0849042,VALID,17.1681,VALID,87,VALID,0.321114,
2001-07-19, 03:21:00,VALID,916.411,VALID,0,VALID,99.4357,VALID,0.0849042,VALID,17.0715,VALID,45,VALID,0.6,
2001-07-19, 03:22:00,VALID,916.416,VALID,0,VALID,99.4153,VALID,0.0679233,VALID,16.9779,VALID,42,VALID,0.755757,
2001-07-19, 03:23:00,VALID,916.42,VALID,0,VALID,99.4191,VALID,0.0849042,VALID,16.926,VALID,52,VALID,0.625391,
2001-07-19, 03:24:00,VALID,916.421,VALID,0,VALID,99.4433,VALID,0.0679233,VALID,16.8931,VALID,54,VALID,0.502804,
2001-07-19, 03:25:00,VALID,916.427,VALID,0,VALID,99.4433,VALID,0.0509425,VALID,16.8615,VALID,54,VALID,0.0798828,
2001-07-19, 03:26:00,VALID,916.439,VALID,0,VALID,99.4751,VALID,0.0509425,VALID,16.8615,VALID,54,VALID,0.00205592,
2001-07-19, 03:27:00,VALID,916.441,VALID,0,VALID,99.4992,VALID,0.0509425,VALID,16.8679,VALID,55,VALID,0.0484375,
2001-07-19, 03:28:00,VALID,916.44,VALID,0,VALID,99.4954,VALID,-0.0679233,VALID,16.8498,VALID,58,VALID,0.198918,
2001-07-19, 03:29:00,VALID,916.442,VALID,0,VALID,99.4967,VALID,-0.0679233,VALID,16.8436,VALID,58,VALID,0.199805,
2001-07-19, 03:30:00,VALID,916.455,VALID,0,VALID,99.5298,VALID,-0.0679233,VALID,16.8531,VALID,63,VALID,0.325863,